Simultaneous Nadir Overpasses (SNOs) Predictions

Prediction of SNOs between LANDSAT-8 and METOP-B Satellite Orbit:

Table of predicted SNOs for the next 14.0 days since TLE Epoch: 10/29/2016
Index Date (LANDSAT-8) Time (LANDSAT-8) Lat,Lon (LANDSAT-8) SZA (LANDSAT-8 ) Date (METOP-B) Time (METOP-B) Lat,Lon (METOP-B) SZA (METOP-B ) Distance(km) Time Diff (sec)
1 10/31/2016 13:48:47 81.09, 12.19 97.78 10/31/2016 13:48:31 81.09, 12.36 97.80 3.06 16
2 10/31/2016 14:38:13 -81.11,-179.88 82.16 10/31/2016 14:39:10 -81.11,-179.73 82.12 2.71 57
3 11/03/2016 09:23:02 81.09, 78.61 98.67 11/03/2016 09:22:54 81.09, 78.77 98.69 2.82 8
4 11/03/2016 10:12:28 -81.11,-113.43 81.28 11/03/2016 10:13:33 -81.11,-113.30 81.23 2.46 65
5 11/06/2016 04:07:50 -81.08, -22.70 80.52 11/06/2016 04:06:36 -81.08, -22.52 80.53 3.13 74
6 11/06/2016 04:57:15 81.10, 145.35 99.56 11/06/2016 04:57:15 81.11, 145.53 99.58 3.08 0
7 11/06/2016 05:46:41 -81.13, -46.67 80.38 11/06/2016 05:47:54 -81.13, -46.51 80.33 2.76 73
8 11/08/2016 23:42:05 -81.07, 43.64 79.72 11/08/2016 23:41:00 -81.06, 43.50 79.77 2.66 65
9 11/09/2016 00:31:30 81.10,-148.33 100.35 11/09/2016 00:31:39 81.09,-148.49 100.33 2.84 9
10 11/11/2016 19:16:20 -81.06, 109.93 78.98 11/11/2016 19:15:23 -81.06, 109.86 79.01 1.32 57




NCC Satellite Simultaneous Nadir Overpasses (SNOs) Prediction Service
